TPC weather

Tarapoa Airport
Tarapoa, Sucumbios Province, Ecuador

Public forecast

Using degrees Celsius for public forecast. Weather courtesy of forecast.io.

METAR (pilot weather report)

Report is more than 2 hours old.

Closest report is Nueva Loja Airport, 34.3 nm (63.6 km) WNW. Retrieved 2019/04/20 23:00 UTC (5 hours ago):

SENL 202300Z 03003KT 9999 FEW020 SCT040 27/24 Q1010 RMK A2983

TAF (pilot weather forecast)

Forecast is more than 12 hours old.

Closest forecast is Nueva Loja Airport, 34.3 nm (63.6 km) WNW. Retrieved 2018/09/09 12:03 UTC (7 months ago):

TAF TAF SCDA 091040Z 0912/1012 19004KT 9999 OVC020 TX18/0917Z TN16/1006ZLVA0571 091200 GG EBBRYZYX EBBRYZYZ EGGYYBYA KMKMYTYX KWBCYMYX MPLBYFYX MPTOYMYX 091200 SEQUYZYX SAEQ01 SEQU 091200 RRB METAR SENL 091200Z 36002KT 9999 SCT030 BKN100 22/21 Q1013 RMK A2994